Weather History for KPPA - November, 2013

Change the Weather History Date:

Wednesday, November 13, 2013

  Actual Average Record
Temperature  
Mean Temperature 42 °F -  
Max Temperature 60 °F 59 °F 84 °F (1989)
Min Temperature 25 °F 34 °F 11 °F (1986)
Degree Days  
Heating Degree Days 22    
Moisture  
Dew Point 22 °F    
Average Humidity 46    
Maximum Humidity 61    
Minimum Humidity 34    
Precipitation  
Precipitation 0.00 in - - ()
Sea Level Pressure  
Sea Level Pressure 30.38 in    
Wind  
Wind Speed 13 mph (SSW)    
Max Wind Speed 23 mph    
Max Gust Speed 31 mph    
Visibility 10 miles    
Events      
Averages and records for this station are not official NWS values.
T = Trace of Precipitation, MM = Missing Value Source: NWS Daily Summary

Daily Weather History Graph

Daily Weather History Graph

Search for Another Location

Airport or City:

Trip Planner

Search our weather history database for the weather conditions in past years. The results will help you decide how hot, cold, wet, or windy it might be!

Date:

Astronomy

Nov. 13, 2013 Rise Set
Actual Time 7:17 AM CST 5:38 PM CST
Civil Twilight 6:50 AM CST 6:05 PM CST
Nautical Twilight 6:20 AM CST 6:36 PM CST
Astronomical Twilight 5:50 AM CST 7:06 PM CST
Moon 3:20 PM CST (11/13) 3:20 AM CST (11/13)
Length of Visible Light 11h 14m
Length of Day
10h 20m
Waxing Gibbous, 85% of the Moon is Illuminated
Nov 13
Waxing Gibbous
Nov 17
Full
Nov 25
Last Quarter
Dec 2
New
Dec 9
First Quarter

Hourly Weather History & Observations

Time (CST) Temp. Windchill Dew Point Humidity Pressure Visibility Wind Dir Wind Speed Gust Speed Precip Events Conditions
12:15 AM 25.5 °F 15.5 °F 13.8 °F 61% 30.60 in 10.0 mi SSW 10.4 mph - N/A   Clear
12:35 AM 27.1 °F 18.2 °F 13.8 °F 57% 30.59 in 10.0 mi SSW 9.2 mph - N/A   Clear
12:55 AM 27.9 °F 18.4 °F 13.1 °F 54% 30.58 in 10.0 mi SSW 10.4 mph - N/A   Clear
1:15 AM 28.0 °F 18.6 °F 12.7 °F 53% 30.57 in 10.0 mi SSW 10.4 mph - N/A   Clear
1:35 AM 27.5 °F 18.0 °F 12.9 °F 54% 30.57 in 10.0 mi SSW 10.4 mph - N/A   Clear
1:55 AM 27.7 °F 17.1 °F 12.6 °F 53% 30.57 in 10.0 mi SSW 12.7 mph - N/A   Clear
2:15 AM 27.7 °F 18.2 °F 12.2 °F 52% 30.57 in 10.0 mi SSW 10.4 mph - N/A   Clear
2:35 AM 25.7 °F 17.1 °F 12.6 °F 58% 30.57 in 10.0 mi South 8.1 mph - N/A   Clear
2:55 AM 26.6 °F 16.8 °F 12.7 °F 56% 30.57 in 10.0 mi South 10.4 mph - N/A   Clear
3:15 AM 26.6 °F 15.7 °F 12.6 °F 55% 30.56 in 10.0 mi South 12.7 mph - N/A   Clear
3:35 AM 26.2 °F 16.4 °F 12.9 °F 57% 30.55 in 10.0 mi South 10.4 mph - N/A   Clear
3:55 AM 25.7 °F 15.7 °F 13.1 °F 59% 30.55 in 10.0 mi South 10.4 mph - N/A   Clear
4:15 AM 26.1 °F 16.2 °F 13.1 °F 58% 30.54 in 10.0 mi South 10.4 mph - N/A   Clear
4:35 AM 27.1 °F 16.4 °F 13.1 °F 56% 30.53 in 10.0 mi SSW 12.7 mph - N/A   Clear
4:55 AM 27.3 °F 17.1 °F 12.9 °F 55% 30.52 in 10.0 mi South 11.5 mph - N/A   Clear
5:15 AM 27.3 °F 17.7 °F 12.9 °F 55% 30.51 in 10.0 mi South 10.4 mph - N/A   Clear
5:35 AM 27.5 °F 18.0 °F 12.9 °F 54% 30.51 in 10.0 mi SSW 10.4 mph - N/A   Clear
5:55 AM 29.7 °F 19.6 °F 12.7 °F 49% 30.50 in 10.0 mi SSW 12.7 mph - N/A   Clear
6:15 AM 30.2 °F 20.8 °F 12.2 °F 47% 30.50 in 10.0 mi South 11.5 mph - N/A   Clear
6:35 AM 30.6 °F 20.2 °F 12.2 °F 47% 30.50 in 10.0 mi SSW 13.8 mph - N/A   Clear
6:55 AM 30.7 °F 20.9 °F 12.0 °F 46% 30.49 in 10.0 mi SSW 12.7 mph - N/A   Clear
7:15 AM 30.7 °F 20.9 °F 12.2 °F 46% 30.49 in 10.0 mi SSW 12.7 mph - N/A   Clear
7:35 AM 30.9 °F 22.2 °F 12.7 °F 47% 30.49 in 10.0 mi SSW 10.4 mph - N/A   Clear
7:55 AM 32.0 °F 23.0 °F 13.8 °F 47% 30.49 in 10.0 mi SSW 11.5 mph - N/A   Clear
8:15 AM 34.0 °F 25.5 °F 16.3 °F 49% 30.48 in 10.0 mi SSW 11.5 mph - N/A   Clear
8:35 AM 35.8 °F 27.8 °F 18.3 °F 49% 30.48 in 10.0 mi SSW 11.5 mph - N/A   Clear
8:55 AM 37.9 °F 29.2 °F 20.1 °F 49% 30.48 in 10.0 mi SSW 15.0 mph - N/A   Clear
9:15 AM 40.1 °F 32.0 °F 21.9 °F 48% 30.48 in 10.0 mi SSW 15.0 mph - N/A   Clear
9:35 AM 41.5 °F 34.2 °F 22.8 °F 47% 30.47 in 10.0 mi SSW 13.8 mph - N/A   Clear
9:55 AM 43.9 °F 36.8 °F 24.1 °F 46% 30.46 in 10.0 mi SSW 15.0 mph - N/A   Clear
10:15 AM 46.8 °F - 26.2 °F 45% 30.46 in 10.0 mi SW 13.8 mph 17.3 mph N/A   Clear
10:35 AM 49.3 °F - 27.5 °F 43% 30.45 in 10.0 mi SW 16.1 mph - N/A   Clear
10:55 AM 51.4 °F - 31.5 °F 46% 30.45 in 10.0 mi SW 15.0 mph 21.9 mph N/A   Clear
11:15 AM 52.5 °F - 30.9 °F 44% 30.44 in 10.0 mi SW 17.3 mph 24.2 mph N/A   Clear
11:35 AM 53.2 °F - 30.2 °F 41% 30.43 in 10.0 mi SW 17.3 mph - N/A   Clear
11:55 AM 54.5 °F - 30.9 °F 41% 30.41 in 10.0 mi SW 19.6 mph 25.3 mph N/A   Clear
12:15 PM 55.2 °F - 31.1 °F 40% 30.39 in 10.0 mi SW 17.3 mph 21.9 mph N/A   Clear
12:35 PM 56.3 °F - 31.1 °F 38% 30.37 in 10.0 mi SSW 17.3 mph 25.3 mph N/A   Clear
12:55 PM 57.6 °F - 30.4 °F 36% 30.36 in 10.0 mi SSW 19.6 mph 26.5 mph N/A   Clear
1:15 PM 58.1 °F - 30.4 °F 35% 30.34 in 10.0 mi SSW 19.6 mph - N/A   Clear
1:35 PM 59.0 °F - 32.0 °F 36% 30.33 in 10.0 mi SW 23.0 mph 27.6 mph N/A   Clear
1:55 PM 59.9 °F - 32.5 °F 36% 30.32 in 10.0 mi SW 20.7 mph 29.9 mph N/A   Clear
2:15 PM 60.1 °F - 32.2 °F 35% 30.30 in 10.0 mi SSW 23.0 mph 27.6 mph N/A   Clear
2:35 PM 60.4 °F - 32.0 °F 34% 30.29 in 10.0 mi SSW 21.9 mph 29.9 mph N/A   Clear
2:55 PM 60.8 °F - 32.0 °F 34% 30.28 in 10.0 mi SW 20.7 mph 31.1 mph N/A   Clear
3:15 PM 60.8 °F - 32.0 °F 34% 30.28 in 10.0 mi SW 20.7 mph 29.9 mph N/A   Clear
3:35 PM 60.4 °F - 32.0 °F 34% 30.27 in 10.0 mi SW 21.9 mph 28.8 mph N/A   Clear
3:55 PM 59.9 °F - 31.8 °F 35% 30.26 in 10.0 mi SSW 19.6 mph 29.9 mph N/A   Clear
4:15 PM 59.4 °F - 31.6 °F 35% 30.26 in 10.0 mi SSW 19.6 mph 25.3 mph N/A   Clear
4:35 PM 58.8 °F - 31.6 °F 36% 30.25 in 10.0 mi SSW 20.7 mph 26.5 mph N/A   Clear
4:55 PM 57.7 °F - 31.1 °F 36% 30.24 in 10.0 mi SSW 18.4 mph 24.2 mph N/A   Clear
5:15 PM 56.3 °F - 31.1 °F 38% 30.24 in 10.0 mi SSW 16.1 mph 23.0 mph N/A   Clear
5:35 PM 54.5 °F - 30.9 °F 41% 30.23 in 10.0 mi SSW 13.8 mph 17.3 mph N/A   Clear
5:55 PM 52.5 °F - 30.7 °F 43% 30.23 in 10.0 mi South 11.5 mph - N/A   Clear
6:15 PM 50.0 °F - 30.4 °F 47% 30.23 in 10.0 mi South 10.4 mph - N/A   Clear
6:35 PM 49.1 °F - 30.2 °F 48% 30.23 in 10.0 mi South 10.4 mph - N/A   Clear
6:55 PM 48.6 °F - 29.8 °F 48% 30.23 in 10.0 mi South 12.7 mph - N/A   Clear
7:15 PM 48.2 °F - 28.2 °F 46% 30.23 in 10.0 mi South 15.0 mph - N/A   Clear
7:35 PM 47.5 °F - 26.6 °F 44% 30.23 in 10.0 mi South 13.8 mph - N/A   Clear
7:55 PM 46.8 °F - 25.5 °F 43% 30.22 in 10.0 mi South 12.7 mph - N/A   Clear
8:15 PM 46.4 °F 40.7 °F 24.6 °F 42% 30.22 in 10.0 mi South 12.7 mph - N/A   Clear
8:35 PM 44.8 °F 39.0 °F 24.4 °F 45% 30.22 in 10.0 mi South 11.5 mph - N/A   Clear
8:55 PM 44.6 °F 38.1 °F 23.9 °F 44% 30.21 in 10.0 mi South 13.8 mph - N/A   Clear
9:15 PM 44.2 °F 37.6 °F 23.4 °F 44% 30.21 in 10.0 mi South 13.8 mph - N/A   Clear
9:35 PM 43.3 °F 35.8 °F 22.6 °F 44% 30.20 in 10.0 mi South 16.1 mph - N/A   Clear
9:55 PM 43.2 °F 35.3 °F 21.9 °F 43% 30.19 in 10.0 mi South 17.3 mph - N/A   Clear
10:15 PM 43.2 °F 34.7 °F 21.2 °F 42% 30.18 in 10.0 mi South 19.6 mph 24.2 mph N/A   Clear
10:35 PM 42.8 °F 34.3 °F 21.0 °F 42% 30.17 in 10.0 mi South 19.6 mph 24.2 mph N/A   Clear
10:55 PM 41.9 °F 33.1 °F 20.8 °F 43% 30.16 in 10.0 mi South 19.6 mph 25.3 mph N/A   Clear
11:15 PM 40.6 °F 31.7 °F 20.8 °F 45% 30.16 in 10.0 mi South 18.4 mph - N/A   Clear
11:35 PM 39.7 °F 31.2 °F 20.8 °F 47% 30.14 in 10.0 mi South 16.1 mph - N/A   Clear
11:55 PM 40.1 °F 31.6 °F 20.3 °F 45% 30.14 in 10.0 mi South 16.1 mph - N/A   Clear